Location: Bidwell Hollow
(37.7387°N, 90.1707°W)
Time: 23:34:52
(UTC+00:00)

Injun/Solrad 3 - All Passes

Search period start: 11 May 2026 00:00
Search period end: 21 May 2026 00:00
Orbit: 868 x 988 km, 66.8° (Epoch: 11 May)

Date Brightness Start Highest point End Pass type
(mag) Time Alt. Az. Time Alt. Az. Time Alt. Az.
11 May - 06:37:35 10° N 06:43:19 33° NE 06:49:04 10° ESE visible
11 May - 08:23:53 10° NW 08:29:55 43° WSW 08:35:56 10° S visible
11 May - 21:43:13 10° S 21:49:02 59° ESE 21:55:06 10° NE daylight
11 May - 23:31:10 10° W 23:35:57 24° NW 23:40:53 10° N daylight
12 May - 05:05:58 10° NNE 05:06:24 10° NE 05:06:52 10° NE visible
12 May - 06:48:20 10° NNW 06:54:33 48° ENE 07:00:45 10° SE visible
12 May - 08:35:25 10° NW 08:40:45 28° WSW 08:46:03 10° SSW visible
12 May - 20:12:31 10° ESE 20:14:30 12° E 20:16:31 10° E daylight
12 May - 21:54:01 10° SSW 22:00:00 89° WNW 22:06:14 10° NNE daylight
12 May - 23:43:36 10° W 23:47:24 17° NW 23:51:16 10° N daylight
13 May - 05:14:37 10° N 05:18:02 15° NE 05:21:27 10° ENE visible
13 May - 06:59:14 10° NNW 07:05:40 72° ENE 07:12:06 10° SE visible
13 May - 08:47:25 10° WNW 08:51:29 18° WSW 08:55:31 10° SW visible
13 May - 20:20:59 10° SSE 20:25:10 20° ESE 20:29:27 10° ENE daylight
13 May - 22:05:09 10° SW 22:11:04 59° WNW 22:17:12 10° NNE daylight
13 May - 23:56:54 10° WNW 23:58:57 12° NW 00:01:02 10° NNW daylight
14 May - 05:24:49 10° N 05:29:32 21° NE 05:34:13 10° E visible
14 May - 07:10:15 10° NNW 07:16:42 77° WSW 07:23:07 10° SSE visible
14 May - 09:01:39 10° W 09:02:08 10° W 09:02:37 10° WSW visible
14 May - 20:30:43 10° SSE 20:35:55 32° ESE 20:41:15 10° NE daylight
14 May - 22:16:37 10° WSW 22:22:13 39° NW 22:28:02 10° NNE daylight
15 May - 05:35:21 10° N 05:40:54 29° NE 05:46:26 10° ESE visible
15 May - 07:21:27 10° NW 07:27:39 50° WSW 07:33:47 10° S visible
15 May - 20:40:59 10° S 20:46:44 51° ESE 20:52:42 10° NE daylight
15 May - 22:28:27 10° WSW 22:33:30 27° NW 22:38:42 10° N daylight
16 May - 05:46:04 10° NNW 05:52:10 42° NE 05:58:14 10° SE visible
16 May - 07:32:52 10° NW 07:38:29 32° WSW 07:44:04 10° SSW visible
16 May - 20:51:41 10° SSW 20:57:40 80° ESE 21:03:52 10° NNE daylight
16 May - 22:40:43 10° W 22:44:54 19° NW 22:49:11 10° N daylight
17 May - 04:12:41 10° NNE 04:15:31 13° NE 04:18:21 10° ENE visible
17 May - 05:56:55 10° NNW 06:03:19 63° ENE 06:09:41 10° SE visible
17 May - 07:44:41 10° WNW 07:49:15 21° WSW 07:53:48 10° SSW visible
17 May - 19:19:14 10° SE 19:22:55 17° ESE 19:26:42 10° ENE daylight
17 May - 21:02:43 10° SW 21:08:41 68° WNW 21:14:53 10° NNE daylight
17 May - 22:53:37 10° WNW 22:56:25 13° NW 22:59:16 10° NNW daylight
18 May - 04:22:42 10° N 04:27:03 18° NE 04:31:23 10° E visible
18 May - 06:07:54 10° NNW 06:14:23 87° WSW 06:20:49 10° SSE visible
18 May - 07:57:29 10° WNW 07:59:56 12° W 08:02:23 10° WSW visible
18 May - 19:28:41 10° SSE 19:33:39 28° ESE 19:38:43 10° NE daylight
18 May - 21:14:05 10° SW 21:19:49 45° NW 21:25:47 10° NNE daylight
19 May - 04:33:09 10° N 04:38:28 26° NE 04:43:45 10° ESE visible
19 May - 06:19:02 10° NW 06:25:21 58° WSW 06:31:36 10° S visible
19 May - 19:38:50 10° S 19:44:27 44° ESE 19:50:15 10° NE daylight
19 May - 21:25:47 10° WSW 21:31:04 30° NW 21:36:30 10° N daylight
20 May - 04:43:49 10° NNW 04:49:46 37° NE 04:55:41 10° ESE visible
20 May - 06:30:23 10° NW 06:36:13 37° WSW 06:42:01 10° S visible
20 May - 19:49:23 10° SSW 19:55:20 69° ESE 20:01:31 10° NNE daylight
20 May - 21:37:53 10° W 21:42:25 21° NW 21:47:04 10° N daylight
